Flag for Australia Weather past 2 weeks in Hobart, Tasmania, Australia

Now
55 °F

Scattered showers. Broken clouds.


Feels Like: 51 °F
Forecast: 54 / 60 °F
Wind: 17 mph from South

Location: Hobart Airport

Current Time: Jan 29, 2015 at 8:17:13 AM

Latest Report: Jan 29, 2015 at 7:00 AM


Visibility: N/A

Pressure: 30.27 "Hg

Humidity: 67%

Dew point: 45 °F

Location of HobartLocation

Historic Weather in Hobart — Graph

°F

Hobart temperature yesterday

Maximum temperature yesterday: 63 °F (at 1:30 PM)
Minimum temperature yesterday: 52 °F (at 3:00 AM)
Average temperature yesterday: 56 °F

Past Weeks' High & Low Weather Summary

 TemperatureHumidityPressure
High81 °F (Jan 21, 3:30 PM)94% (Jan 14, 7:00 AM)30.30 "Hg (Jan 14, 7:00 AM)
Low50 °F (Jan 17, 6:30 AM)28% (Jan 23, 2:30 PM)29.21 "Hg (Jan 14, 2:00 PM)
Average61 °F61%29.73 "Hg
* Reported Jan 14 7:00 AM — Jan 29 7:00 AM, Hobart, Weather by CustomWeather, © 2014

Note: Actual official high and low records may vary slightly from our data, if they occured in-between our weather recording intervals... More about our weather records

Advertising

Hobart weather history for previous 24 hours

 ConditionsComfort  
Time TempWeatherWind HumidityBarometerVisibility
7:00 AM
Jan 29
55 °FScattered showers. Broken clouds.17 mph67%30.27 "HgN/A
6:30 AM55 °FPartly sunny.15 mph59%30.24 "HgN/A
6:00 AM55 °FPassing clouds.14 mph59%30.24 "HgN/A
5:30 AM55 °FPassing clouds.13 mph59%30.24 "HgN/A
5:00 AM55 °FPassing clouds.14 mph59%30.24 "HgN/A
4:30 AM57 °FPassing clouds.15 mph51%30.24 "HgN/A
4:00 AM57 °FPassing clouds.15 mph51%30.24 "HgN/A
3:30 AM55 °FPassing clouds.12 mph63%30.24 "HgN/A
3:00 AM55 °FPassing clouds.13 mph63%30.24 "HgN/A
2:30 AM55 °FPassing clouds.10 mph67%30.24 "HgN/A
2:00 AM54 °FPartly cloudy.13 mph77%30.27 "HgN/A
1:30 AM54 °FPassing clouds.8 mph77%30.27 "HgN/A
1:00 AM54 °FPassing clouds.9 mph72%30.27 "HgN/A
12:30 AM54 °FPassing clouds.6 mph77%30.27 "HgN/A
12:00 AM54 °FPassing clouds.8 mph72%30.27 "HgN/A
11:30 PM
Jan 28
54 °FScattered showers. Passing clouds.17 mph72%30.27 "HgN/A
11:00 PM55 °FPassing clouds.12 mph67%30.27 "HgN/A
10:30 PM57 °FSprinkles. Passing clouds.16 mph55%30.27 "HgN/A
10:00 PM57 °FPassing clouds.16 mph55%30.30 "HgN/A
9:30 PM57 °FPartly cloudy.15 mph59%30.30 "HgN/A
9:00 PM57 °FPartly cloudy.20 mph59%30.27 "HgN/A
8:00 PM57 °FBroken clouds.18 mph63%30.27 "HgN/A
7:30 PM57 °FSprinkles. Broken clouds.17 mph59%30.27 "HgN/A
7:00 PM59 °FBroken clouds.17 mph55%30.27 "HgN/A
6:30 PM59 °FBroken clouds.18 mph55%30.27 "HgN/A
6:00 PM59 °FPartly sunny.18 mph51%30.27 "HgN/A
5:00 PM59 °FPartly sunny.20 mph55%30.27 "HgN/A
4:30 PM61 °FPartly sunny.20 mph52%30.24 "HgN/A
4:00 PM61 °FPartly sunny.20 mph48%30.24 "HgN/A
3:30 PM63 °FPartly sunny.20 mph45%30.24 "HgN/A
3:00 PM59 °FPartly sunny.20 mph55%30.27 "HgN/A
2:00 PM63 °FScattered clouds.20 mph45%30.24 "HgN/A
1:30 PM63 °FBroken clouds.17 mph42%30.27 "HgN/A
1:00 PM59 °FBroken clouds.18 mph55%30.27 "HgN/A
12:30 PM61 °FBroken clouds.18 mph55%30.27 "HgN/A
12:00 PM59 °FBroken clouds.17 mph55%30.27 "HgN/A
11:30 AM57 °FBroken clouds.17 mph59%30.27 "HgN/A
11:00 AM55 °FPartly sunny.14 mph67%30.27 "HgN/A
10:30 AM54 °FSprinkles. Partly sunny.14 mph77%30.27 "HgN/A
10:00 AM57 °FBroken clouds.16 mph59%30.24 "HgN/A
9:30 AM57 °FBroken clouds.15 mph63%30.24 "HgN/A
9:00 AM57 °FBroken clouds.15 mph72%30.24 "HgN/A
8:00 AM54 °FScattered showers. Broken clouds.9 mph88%30.21 "HgN/A
Weather by CustomWeather, © 2014

See weather overviewHow to use our weather pages